Location: Baix
(44.7118°N, 4.7648°E)
Time: 02:36:06
(UTC+00:00)

SJ 16-02 - Pass Details

Date: 07 August 2020
Orbit: 607 x 616 km, 75.0° (Epoch: 27 September)

Event Time Altitude Azimuth Distance (km) Brightness Sun altitude
Exits shadow 03:02:11 20° 260° (W) 1,441 2.7 -14.5°
Maximum altitude 03:04:07 27° 299° (WNW) 1,193 2.6 -14.3°
Drops below altitude 10° 03:07:53 10° 358° (N) 1,980 4.5 -13.8°
Sets 03:10:26 0° 10° (N) 2,888 5.6 -13.4°
